SCP
0 0 0 0 0 0 0 0 0 0 0 0 0 0 0 0 0 0 0 0 0 0 0 0 0 0 0 0 0 0 0 0 0 0 0 0 0 0 0 0 0 0 0
0 0 0 0 0 0 0 0 0 0 0 0 0 0 0 0 0 0 0 0 0 0 0 0 0 0 0 0 0 0 0 0 0 0 0 0 0 0 0 0 0 0 0
0 0 0 0 0 0 0 0 0 0 0 0 0 0 0 0 0 0 0 0 0 0 0 0 0 0 0 0 0 0 0 0 0 0 0 0 0 0 0 0 0 0 0
0 0 0 0 0 0 0 0 0 0 0 0 0 0 0 0 0 0 0 0 0 0 0 0 0 0 0 0 0 0 0 0 0 0 0 0 0 0 0 0 0 0 0
0 0 0 0 0 0 0 0 0 0 0 0 0 0 0 0 0 0 0 0 0 0 0 0 0 0 0 0 0 0 0 0 0 0 0 0 0 0 0 0 0 0 0
0 0 0 0 0 0 0 0 0 0 0 0 0 0 0 0 0 0 0 0 0 0 0 0 0 0 0 0 0 0 0 0 0 0 0 0 0 0 0 0 0 0 0
0 0 0 0 0 0 0 0 0 0 0 0 0 0 0 0 0 0 0 0 0 0 0 0 0 0 0 0 0 0 0 0 0 0 0 0 0 0 0 0 0 0 0
0 0 0 0 0 0 0 0 0 0 0 0 0 0 0 0 0 0 0 0 0 0 0 0 0 0 0 0 0 0 0 0 0 0 0 0 0 0 0 0 0 0 0
0 0 0 0 0 0 0 0 0 0 0 0 0 0 0 0 0 0 0 0 0 0 0 0 0 0 0 0 0 0 0 0 0 0 0 0 0 0 0 0 0 0 0
0 0 0 0 0 0 0 0 0 0 0 0 0 0 0 0 0 0 0 0 0 0 0 0 0 0 0 0 0 0 0 0 0 0 0 0 0 0 0 0 0 0 0
0 0 0 0 0 0 0 0 0 0 0 0 0 0 0 0 0 0 0 0 0 0 0 0 0 0 0 0 0 0 0 0 0 0 0 0 0 0 0 0 0 0 0
0 0 0 0 0 0 0 0 0 0 0 0 0 0 0 0 0 0 0 0 0 0 0 0 0 0 0 0 0 0 0 0 0 0 0 0 0 0 0 0 0 0 0
0 0 0 0 0 0 0 0 0 0 0 0 0 0 0 0 0 0 0 0 0 0 0 0 0 0 0 0 0 0 0 0 0 0 0 0 0 0 0 0 0 0 0
0 0 0 0 0 0 0 0 0 0 0 0 0 0 0 0 0 0 0 0 0 0 0 0 0 0 0 0 0 0 0 0 0 0 0 0 0 0 0 0 0 0 0
0 0 0 0 0 0 0 0 0 0 0 0 0 0 0 0 0 0 0 0 0 0 0 0 0 0 0 0 0 0 0 0 0 0 0 0 0 0 0 0 0 0 0
0 0 0 0 0 0 0 0 0 0 0 0 0 0 0 0 0 0 0 0 0 0 0 0 0 0 0 0 0 0 0 0 0 0 0 0 0 0 0 0 0 0 0
0 0 0 0 0 0 0 0 0 0 0 0 0 0 0 0 0 0 0 0 0 0 0 0 0 0 0 0 0 0 0 0 0 0 0 0 0 0 0 0 0 0 0
0 0 0 0 0 0 0 0 0 0 0 0 0 0 0 0 0 0 0 0 0 0 0 0 0 0 0 0 0 0 0 0 0 0 0 0 0 0 0 0 0 0 0
0 0 0 0 0 0 0 0 0 0 0 0 0 0 0 0 0 0 0 0 0 0 0 0 0 0 0 0 0 0 0 0 0 0 0 0 0 0 0 0 0 0 0
0 0 0 0 0 0 0 0 0 0 0 0 0 0 0 0 0 0 0 0 0 0 0 0 0 0 0 0 0 0 0 0 0 0 0 0 0 0 0 0 0 0 0
0 0 0 0 0 0 0 0 0 0 0 0 0 0 0 0 0 0 0 0 0 0 0 0 0 0 0 0 0 0 0 0 0 0 0 0 0 0 0 0 0 0 0
0 0 0 0 0 0 0 0 0 0 0 0 0 0 0 0 0 0 0 0 0 0 0 0 0 0 0 0 0 0 0 0 0 0 0 0 0 0 0 0 0 0 0
0 0 0 0 0 0 0 0 0 0 0 0 0 0 0 0 0 0 0 0 0 0 0 0 0 0 0 0 0 0 0 0 0 0 0 0 0 0 0 0 0 0 0
0 0 0 0 0 0 0 0 0 0 0 0 0 0 0 0 0 0 0 0 0 0 0 0 0 0 0 0 0 0 0 0 0 0 0 0 0 0 0 0 0 0 0
0 0 0 0 0 0 0 0 0 0 0 0 0 0 0 0 0 0 0 0 0 0 0 0 0 0 0 0 0 0 0 0 0 0 0 0 0 0 0 0 0 0 0
0 0 0 0 0 0 0 0 0 0 0 0 0 0 0 0 0 0 0 0 0 0 0 0 0 0 0 0 0 0 0 0 0 0 0 0 0 0 0 0 0 0 0
Wind_Speed
6 6 7 7 6 6 5 5 5 4 4 3 2 2 1 1 1 1 2 3 3 3 3 3 3 3 3 2 3 3 3 2 2 3 3 3 3 3 2 2 2 2 2
4 5 6 7 7 7 6 5 6 5 5 3 2 2 2 1 1 1 2 2 3 3 3 4 3 3 3 4 3 3 2 1 1 3 2 2 3 3 3 2 2 2 2
9 8 7 7 7 7 8 7 6 6 5 4 3 3 3 2 2 2 1 1 3 3 3 3 3 3 3 3 3 3 3 2 1 1 3 3 1 1 3 3 2 2 2
8 8 8 8 8 8 6 6 6 6 5 5 5 5 3 2 2 1 1 1 2 3 3 4 4 3 3 3 2 3 2 3 1 1 1 2 3 2 1 3 3 3 3
9 10 10 9 8 7 6 6 6 6 5 6 6 5 4 2 2 1 2 1 1 2 2 3 3 3 3 3 3 3 3 2 2 1 1 2 2 2 2 0 2 3 2
9 9 9 8 7 7 6 6 6 5 5 6 6 6 6 4 4 2 2 1 1 1 1 3 3 3 3 3 3 3 3 2 3 2 2 2 2 1 2 2 0 1 2
9 9 9 8 8 8 8 7 7 6 5 6 6 6 7 6 6 4 4 3 1 1 1 2 2 2 2 3 3 3 3 3 3 2 2 1 1 2 2 3 1 1 1
9 9 10 10 9 9 8 8 7 6 6 6 6 6 6 5 4 4 4 4 3 2 2 2 2 2 3 3 3 3 2 2 3 2 2 1 1 1 2 3 3 2 2
9 9 9 10 10 9 9 9 8 6 6 7 6 5 6 5 5 4 4 3 3 3 3 3 3 3 3 3 4 3 2 3 2 2 2 2 1 1 1 2 3 4 2
8 8 9 10 9 9 8 8 8 7 6 6 6 6 6 6 6 5 4 4 3 3 4 3 3 3 3 4 3 3 2 3 2 2 2 2 1 1 1 1 1 2 3
9 9 9 9 8 8 7 7 7 6 6 6 6 6 5 5 5 5 5 4 3 4 4 4 4 4 3 3 4 3 3 3 2 2 3 2 1 2 1 2 2 2 3
7 8 8 8 8 8 8 7 7 7 6 6 6 6 5 5 5 5 4 4 4 4 4 4 4 3 3 3 4 4 3 3 3 2 2 1 2 2 1 2 2 2 2
6 6 6 7 8 9 8 8 7 7 6 6 6 6 6 6 5 5 4 4 4 4 4 4 4 4 3 4 4 4 3 3 3 2 2 1 2 2 2 2 2 2 2
6 6 6 7 7 8 8 8 7 6 6 6 7 7 6 6 6 5 4 4 5 5 4 4 4 4 4 4 4 4 4 3 3 2 2 2 2 2 2 2 2 2 3
6 7 7 7 6 7 7 7 6 6 7 7 7 6 6 5 5 4 4 4 4 5 5 5 4 4 4 4 4 4 4 4 3 2 2 2 3 4 3 3 3 3 3
6 7 7 7 7 7 7 6 6 6 7 7 6 6 6 6 5 5 4 4 4 4 5 5 5 4 3 6 7 6 4 4 4 3 2 2 3 4 5 6 6 5 5
6 7 8 8 8 7 7 8 7 6 7 7 6 6 7 6 5 5 5 5 4 4 4 4 4 4 4 7 8 8 5 4 3 3 2 2 2 3 3 4 5 4 4
7 7 7 7 6 6 6 6 6 6 6 6 6 6 7 6 5 5 5 5 4 4 4 4 4 4 4 7 8 8 5 4 3 3 3 3 2 2 3 3 3 2 2
7 7 7 6 6 6 6 6 6 6 6 6 6 6 7 7 6 6 5 4 5 4 4 4 4 4 4 6 8 8 5 4 3 2 3 3 3 3 5 5 4 2 2
5 6 6 5 6 6 6 7 6 6 7 7 7 6 6 7 7 7 5 4 5 4 4 3 3 4 4 6 8 8 4 4 2 2 2 3 4 5 6 4 4 2 0
4 5 6 6 6 6 7 7 7 7 6 6 6 6 6 6 6 5 4 5 5 5 4 4 2 3 4 5 8 8 4 4 3 2 1 1 4 5 5 5 3 3 2
4 5 6 6 5 7 8 7 7 6 5 6 6 6 5 5 5 5 4 5 6 5 4 3 2 1 2 4 6 7 6 6 5 3 2 2 4 4 4 3 4 5 4
4 4 5 6 5 6 8 9 7 6 6 6 6 6 5 4 5 6 6 5 5 4 4 4 3 1 1 2 5 7 7 7 4 3 5 4 4 4 3 4 4 4 3
4 4 5 5 5 6 6 7 7 7 8 7 6 5 5 4 4 4 5 5 5 5 4 4 4 2 2 2 2 3 3 4 3 3 4 5 4 3 3 3 2 2 2
4 4 5 5 6 6 6 6 7 8 8 7 6 5 5 5 4 3 3 4 4 6 7 6 5 5 4 5 7 6 4 4 4 4 3 2 2 2 1 1 1 1 1
4 4 4 4 4 5 5 5 6 8 8 6 6 5 4 4 4 4 2 1 2 4 6 6 6 4 5 7 8 7 6 7 8 6 3 2 2 2 2 2 1 1 1
Wind_Direction
200 181 173 169 164 163 159 158 151 147 132 117 112 107 100 72 65 86 93 91 96 103 106 106 96 98 103 108 109 103 82 66 89 80 46 20 28 37 33 48 60 64 67
189 181 171 166 168 170 169 164 161 158 151 145 141 139 131 116 105 71 75 83 97 107 119 119 117 114 106 95 94 100 95 65 82 117 97 36 4 3 13 25 57 62 65
186 183 175 173 170 173 176 175 174 163 156 143 119 99 72 55 44 43 45 53 93 99 111 116 120 128 120 121 116 121 121 114 40 92 134 135 190 325 349 14 30 50 66
184 182 179 176 178 182 176 171 172 166 162 149 143 143 139 143 179 171 126 66 88 101 111 119 119 126 122 125 131 123 126 125 108 31 63 129 151 141 359 348 1 30 53
186 185 184 178 175 173 170 171 167 168 168 159 156 151 145 154 155 133 109 80 67 89 116 127 124 124 125 127 118 108 106 119 132 124 100 81 71 100 136 185 343 9 15
188 185 184 169 166 165 162 168 166 173 171 163 162 160 158 157 149 151 145 132 67 56 89 117 121 125 127 130 125 117 114 113 109 105 107 124 121 135 130 148 224 10 347
183 181 178 171 169 170 171 171 170 177 176 169 169 170 169 168 171 174 170 160 144 144 150 112 117 123 134 136 125 113 109 116 114 112 110 114 142 155 141 137 148 82 343
183 184 182 178 176 175 174 172 172 178 179 177 177 177 173 170 176 178 171 172 171 183 168 140 133 131 129 122 115 108 111 109 109 105 112 106 111 135 146 150 142 98 18
187 186 182 180 177 176 177 176 174 179 184 180 175 175 174 169 171 173 168 172 177 173 157 145 134 128 126 123 118 114 122 114 108 116 112 100 91 118 124 137 147 144 141
186 185 183 183 182 179 177 174 172 179 182 176 175 174 174 171 168 166 171 172 169 158 149 147 141 136 135 132 123 121 126 114 111 121 102 85 89 88 92 118 109 128 144
187 187 185 182 178 172 169 173 174 174 179 177 174 169 173 171 163 168 178 174 167 162 156 155 149 143 140 134 126 126 116 115 105 102 107 92 88 95 90 87 85 89 112
186 183 177 172 171 173 174 177 177 177 181 177 169 167 167 162 160 170 175 168 165 164 156 148 145 145 137 134 132 134 128 124 117 108 100 89 88 83 85 88 86 91 107
177 173 168 172 178 179 177 178 178 179 177 168 162 159 160 160 166 168 164 162 158 150 145 139 142 137 132 128 130 132 131 127 125 124 120 118 108 88 86 92 89 83 86
171 169 173 178 181 180 177 175 180 177 169 161 161 164 171 173 170 164 162 163 156 148 143 137 139 138 133 129 126 121 122 117 112 116 120 122 129 138 128 113 117 107 93
174 179 181 180 175 175 176 174 177 175 168 161 163 172 172 165 156 154 155 150 149 149 143 135 134 131 131 141 138 131 128 123 111 97 99 107 117 125 127 129 134 123 111
188 188 184 179 177 176 176 172 174 174 166 163 169 167 158 154 153 152 142 136 139 140 136 138 140 136 146 152 150 142 135 135 131 122 104 93 84 93 97 116 125 134 136
188 190 188 186 182 179 174 176 177 169 162 162 163 162 159 156 157 151 139 139 144 140 136 143 139 141 151 153 150 148 138 133 138 139 133 119 93 81 88 90 83 87 114
190 189 189 186 180 172 168 170 165 161 159 159 161 164 159 155 150 147 149 146 140 140 143 147 149 144 152 148 146 139 125 118 121 128 134 130 122 115 114 105 86 70 62
191 187 185 180 171 167 165 157 158 159 158 165 167 166 160 157 156 159 161 152 142 141 143 146 147 145 150 146 143 135 123 116 114 120 128 136 138 139 122 110 103 77 33
183 178 168 160 163 170 159 154 160 162 170 175 173 165 161 161 167 168 160 149 145 147 143 139 151 156 158 152 146 139 128 126 126 113 121 135 139 137 132 128 125 120 40
169 168 159 164 173 166 156 160 164 177 180 168 159 157 161 164 164 157 151 145 141 138 140 139 147 156 162 162 154 148 144 151 147 143 153 154 137 129 131 131 140 150 137
154 164 162 166 167 163 162 167 180 179 157 153 154 155 157 162 155 152 150 148 144 143 145 139 136 152 168 166 165 160 160 158 154 166 175 159 142 131 129 126 125 117 104
155 159 163 161 164 169 169 174 182 161 150 149 155 156 155 156 156 159 157 152 152 154 161 160 167 181 174 163 159 158 157 157 156 166 162 151 139 128 115 107 112 111 103
162 155 150 160 172 175 174 177 168 159 156 157 160 157 154 152 152 158 160 158 162 164 168 171 173 171 159 160 155 157 155 148 145 144 138 130 117 109 100 88 86 106 129
170 160 158 172 182 176 174 170 161 156 157 160 162 159 159 160 156 155 162 169 181 182 176 180 177 170 182 197 176 163 167 168 160 131 104 100 103 105 82 72 73 90 100
166 162 164 172 178 172 173 172 167 163 160 160 161 161 159 159 155 149 122 75 148 172 178 174 172 183 181 167 166 166 163 156 145 128 135 153 160 164 170 165 163 152 172